Phoenix Deer Valley, AZ

10:00 AM MST on November 21, 2019 (GMT -0700)
Phoenix-Deer Valley Municipal

Weather History for KDVT - September, 2019

Change the Weather History Date:

Friday, September 27, 2019

  Actual Average Record
Temperature  
Mean Temperature 74 °F -  
Max Temperature 82 °F 92 °F 102 °F (2001)
Min Temperature 66 °F 70 °F 64 °F (2013)
Cooling Degree Days 9    
Growing Degree Days 24 (Base 50)    
Moisture  
Dew Point 63 °F    
Average Humidity 68    
Maximum Humidity 93    
Minimum Humidity 44    
Precipitation  
Precipitation 0.07 in - - ()
Sea Level Pressure  
Sea Level Pressure 29.78 in    
Wind  
Wind Speed 3 mph ()    
Max Wind Speed 10 mph    
Max Gust Speed -    
Visibility 9.8 miles    
Events Rain    
Averages and records for this station are not official NWS values.
T = Trace of Precipitation, MM = Missing Value Source: Averaged Metar Reports

Daily Weather History Graph

Daily Weather History Graph

Search for Another Location

Airport or City:

Astronomy

Sep. 27, 2019 Rise Set
Actual Time 6:19 AM MST 6:18 PM MST
Civil Twilight 5:54 AM MST 6:43 PM MST
Nautical Twilight 5:26 AM MST 7:12 PM MST
Astronomical Twilight 4:56 AM MST 7:41 PM MST
Moon 4:53 AM MST (9/27) 6:05 PM MST (9/27)
Length of Visible Light 12h 48m
Length of Day
11h 58m
Waning Crescent, 1% of the Moon is Illuminated
Sep 27
Waning Crescent
Sep 28
New
Oct 5
First Quarter
Oct 13
Full
Oct 21
Last Quarter

Hourly Weather History & Observations

Time (MST) Temp. Heat Index Dew Point Humidity Pressure Visibility Wind Dir Wind Speed Gust Speed Precip Events Conditions
12:53 AM 70.0 °F - 66.9 °F 90% 29.83 in 10.0 mi Calm Calm - N/A   Clear
1:53 AM 69.1 °F - 66.0 °F 90% 29.83 in 10.0 mi NW 4.6 mph - N/A   Partly Cloudy
2:53 AM 69.1 °F - 64.9 °F 87% 29.82 in 10.0 mi Calm Calm - N/A   Overcast
3:53 AM 69.1 °F - 64.9 °F 87% 29.82 in 10.0 mi WNW 4.6 mph - N/A   Overcast
4:53 AM 66.9 °F - 64.9 °F 93% 29.83 in 10.0 mi West 6.9 mph - 0.01 in Rain Light Rain
5:53 AM 66.0 °F - 64.0 °F 93% 29.84 in 6.0 mi WNW 3.5 mph - 0.05 in Rain Light Rain
6:53 AM 68.0 °F - 64.9 °F 90% 29.83 in 10.0 mi NNE 4.6 mph - 0.01 in   Overcast
7:53 AM 68.0 °F - 66.0 °F 93% 29.83 in 10.0 mi Calm Calm - N/A   Mostly Cloudy
8:53 AM 72.0 °F - 64.9 °F 78% 29.84 in 10.0 mi Calm Calm - N/A   Partly Cloudy
9:53 AM 73.9 °F - 64.0 °F 71% 29.84 in 10.0 mi Variable 4.6 mph - N/A   Partly Cloudy
10:49 AM 75.2 °F - 64.4 °F 69% 29.89 in 10.0 mi Variable 4.6 mph - N/A   Mostly Cloudy
10:53 AM 75.9 °F - 64.0 °F 67% 29.83 in 10.0 mi South 5.8 mph - N/A   Mostly Cloudy
11:53 AM 78.1 °F - 63.0 °F 60% 29.80 in 10.0 mi SW 8.1 mph - N/A   Partly Cloudy
12:53 PM 79.0 °F - 63.0 °F 58% 29.78 in 10.0 mi WSW 6.9 mph - N/A   Overcast
1:53 PM 81.0 °F 81.9 °F 62.1 °F 52% 29.75 in 10.0 mi WSW 9.2 mph - N/A   Partly Cloudy
2:53 PM 82.9 °F 83.3 °F 61.0 °F 47% 29.73 in 10.0 mi SW 10.4 mph - N/A   Mostly Cloudy
3:53 PM 82.0 °F 82.1 °F 59.0 °F 45% 29.70 in 10.0 mi WNW 5.8 mph - N/A   Clear
4:53 PM 82.9 °F 82.8 °F 59.0 °F 44% 29.70 in 10.0 mi Variable 4.6 mph - N/A   Clear
5:53 PM 81.0 °F 81.6 °F 60.1 °F 49% 29.70 in 10.0 mi Variable 5.8 mph - N/A   Partly Cloudy
6:53 PM 80.1 °F 80.9 °F 60.1 °F 50% 29.70 in 10.0 mi WSW 4.6 mph - N/A   Clear
7:53 PM 79.0 °F - 60.1 °F 52% 29.71 in 10.0 mi SW 5.8 mph - N/A   Clear
8:53 PM 78.1 °F - 60.1 °F 54% 29.71 in 10.0 mi Calm Calm - N/A   Clear
9:53 PM 77.0 °F - 62.1 °F 60% 29.72 in 10.0 mi Calm Calm - N/A   Clear
10:53 PM 77.0 °F - 62.1 °F 60% 29.71 in 10.0 mi Calm Calm - N/A   Clear
11:53 PM 73.0 °F - 63.0 °F 71% 29.70 in 10.0 mi NNE 3.5 mph - N/A   Clear